This is the latest recevied weather packets stored in our database for station/object W5GMO. If no packets are shown the sender has not sent any weather packets the latest 10 day(s).
| Time | Temp. | Humidity | Pressure | Rain* | Wind** | Luminosity | Snow |
|---|---|---|---|---|---|---|---|
| 1777584297 | 19.44° C | 34% | 1009.1 hPa | 0 mm | - | 233 W/m² | - |
| 1777583992 | 19.44° C | 34% | 1009.1 hPa | 0 mm | - | 335 W/m² | - |
| 1777583692 | 19.44° C | 34% | 1009 hPa | 0 mm | - | 137 W/m² | - |
| 1777583392 | 20° C | 33% | 1009.2 hPa | 0 mm | - | 130 W/m² | - |
| 1777583091 | 20° C | 33% | 1009 hPa | 0 mm | - | 403 W/m² | - |
| 1777581572 | 20.56° C | 31% | 1008.7 hPa | 0 mm | - | 134 W/m² | - |
| 1777581267 | 20.56° C | 31% | 1008.6 hPa | 0 mm | - | 493 W/m² | - |
| 1777580662 | 20.56° C | 31% | 1008.5 hPa | 0 mm | - | 567 W/m² | - |
| 1777580358 | 20.56° C | 33% | 1008.5 hPa | 0 mm | - | 585 W/m² | - |
| 1777580055 | 19.44° C | 33% | 1008.5 hPa | 0 mm | - | 361 W/m² | - |
| 1777579751 | 19.44° C | 33% | 1008.6 hPa | 0 mm | - | 201 W/m² | - |
| 1777579449 | 20° C | 32% | 1008.3 hPa | 0 mm | - | 158 W/m² | - |
| 1777578845 | 20.56° C | 30% | 1008.4 hPa | 0 mm | - | 586 W/m² | - |
| 1777577931 | 20.56° C | 32% | 1008.3 hPa | 0 mm | - | 667 W/m² | - |
| 1777577626 | 20.56° C | 33% | 1008.3 hPa | 0 mm | - | 196 W/m² | - |
| 1777577020 | 20.56° C | 32% | 1008.3 hPa | 0 mm | - | 612 W/m² | - |
| 1777576416 | 20.56° C | 33% | 1008.5 hPa | 0 mm | - | 740 W/m² | - |
| 1777574291 | 20.56° C | 36% | 1008.5 hPa | 0 mm | - | 806 W/m² | - |
| 1777573378 | 19.44° C | 36% | 1008.7 hPa | 0 mm | - | 267 W/m² | - |
| 1777572771 | 20° C | 37% | 1008.5 hPa | 0 mm | - | 215 W/m² | - |
| 1777570344 | 19.44° C | 37% | 1008.7 hPa | 0 mm | - | 829 W/m² | - |
| 1777569431 | 20° C | 36% | 1009 hPa | 0 mm | - | 820 W/m² | - |
| 1777568825 | 18.89° C | 38% | 1009 hPa | 0 mm | - | 879 W/m² | - |
| 1777565182 | 18.89° C | 42% | 1009.3 hPa | 0 mm | - | 286 W/m² | - |
| 1777564270 | 18.33° C | 44% | 1009.6 hPa | 0 mm | - | 864 W/m² | - |
* Rain latest hour (hover to see other rain measurements)
** Current wind speed in m/s (hover to see current wind gust speed)